Estació meteorològica de Susqueda - Presa de (La Selva, Susqueda)

Consulta les dades en temps real de l'estació meteorològica de Susqueda - Presa de





Hora UTC 10:55
Temperatura 36.4 ºC
Humitat 33.0 %
Pressió 1018.6 hPa
Pluja 0.0 mm
Velocitat vent 0.0 km/h
Direcció vent E

Webcam

Dades diàries 2026-09-05



Hora UTC (hivern +1h; estiu +2h)
Temperatura (ºC) Humitat (%) Pressió (hPa) Velocitat vent (km/h) Precipitació (mm)
Hora UTC Aire Humitat Pressió Vel. Dir. Vel. Max Dir. Intent. màx 5 min.
00:05 24.6 69.0 1018.1 0.0 W 0.0 0.0
00:10 24.4 70.0 1018.1 0.0 W 8.0 0.0
00:15 24.3 70.0 1018.1 0.0 W 9.7 0.0
00:20 24.2 70.0 1018.2 0.0 WSW 9.7 0.0
00:25 24.1 70.0 1018.2 0.0 W 0.0 0.0
00:30 24.1 71.0 1018.1 6.4 W 11.3 0.0
00:35 24.1 71.0 1018.2 0.0 W 11.3 0.0
00:40 24.1 71.0 1018.1 0.0 W 9.7 0.0
00:45 23.9 72.0 1018.1 0.0 W 6.4 0.0
00:50 23.9 72.0 1018.2 0.0 W 1.6 0.0
00:55 24.0 71.0 1018.1 0.0 WSW 1.6 0.0
01:00 24.0 70.0 1018.1 0.0 WSW 1.6 0.0
01:05 24.0 72.0 1018.2 0.0 WSW 1.6 0.0
01:10 23.8 71.0 1018.3 0.0 WSW 8.0 0.0
01:15 23.6 73.0 1018.2 0.0 W 8.0 0.0
01:20 23.4 73.0 1018.2 0.0 W 9.7 0.0
01:25 23.4 73.0 1018.2 0.0 WSW 11.3 0.0
01:30 23.5 74.0 1018.4 0.0 SW 11.3 0.0
01:35 23.5 74.0 1018.4 0.0 WSW 11.3 0.0
01:40 23.5 73.0 1018.3 0.0 W 11.3 0.0
01:45 23.5 74.0 1018.2 0.0 WSW 11.3 0.0
01:50 23.4 73.0 1018.3 0.0 WSW 11.3 0.0
01:55 23.4 73.0 1018.4 0.0 WSW 3.2 0.0
02:00 23.4 73.0 1018.3 0.0 W 9.7 0.0
02:05 23.3 73.0 1018.4 0.0 W 9.7 0.0
02:10 23.4 73.0 1018.3 0.0 WSW 9.7 0.0
02:15 23.3 73.0 1018.3 0.0 W 11.3 0.0
02:20 23.1 75.0 1018.3 0.0 WSW 11.3 0.0
02:25 22.9 75.0 1018.3 0.0 W 0.0 0.0
02:30 22.9 74.0 1018.2 0.0 WSW 0.0 0.0
02:35 22.9 74.0 1018.3 3.2 WNW 11.3 0.0
02:40 22.8 75.0 1018.2 0.0 W 11.3 0.0
02:45 22.8 75.0 1018.2 0.0 W 11.3 0.0
02:50 22.6 76.0 1018.3 1.6 W 11.3 0.0
02:55 22.6 76.0 1018.3 0.0 W 9.7 0.0
03:00 22.4 76.0 1018.3 0.0 W 9.7 0.0
03:05 22.5 76.0 1018.3 0.0 W 9.7 0.0
03:10 22.4 75.0 1018.3 0.0 W 0.0 0.0
03:15 22.4 75.0 1018.4 0.0 W 0.0 0.0
03:20 22.6 75.0 1018.4 0.0 W 1.6 0.0
03:25 22.6 75.0 1018.4 0.0 WNW 9.7 0.0
03:30 22.4 76.0 1018.4 0.0 W 9.7 0.0
03:35 22.4 76.0 1018.4 0.0 W 6.4 0.0
03:40 22.2 76.0 1018.4 0.0 W 6.4 0.0
03:45 22.1 77.0 1018.4 4.8 W 6.4 0.0
03:50 21.9 77.0 1018.3 0.0 W 6.4 0.0
03:55 22.1 77.0 1018.3 1.6 W 9.7 0.0
04:00 22.3 76.0 1018.2 0.0 W 11.3 0.0
04:05 22.3 76.0 1018.2 0.0 W 11.3 0.0
04:10 22.2 76.0 1018.2 9.7 W 11.3 0.0
04:15 22.1 77.0 1018.2 9.7 W 11.3 0.0
04:20 22.0 76.0 1018.2 9.7 W 9.7 0.0
04:25 21.9 77.0 1018.2 6.4 WSW 11.3 0.0
04:30 21.7 78.0 1018.2 0.0 WSW 11.3 0.0
04:35 21.8 77.0 1018.3 11.3 NW 11.3 0.0
04:40 21.9 78.0 1018.4 8.0 WSW 12.9 0.0
04:45 21.8 78.0 1018.4 9.7 W 12.9 0.0
04:50 21.8 78.0 1018.5 0.0 W 11.3 0.0
04:55 21.6 78.0 1018.5 9.7 WNW 11.3 0.0
05:00 21.7 78.0 1018.5 8.0 WSW 11.3 0.0
05:05 21.9 78.0 1018.7 0.0 W 11.3 0.0
05:10 21.9 78.0 1018.7 0.0 WSW 11.3 0.0
05:15 21.9 77.0 1018.7 0.0 WSW 11.3 0.0
05:20 21.8 78.0 1018.8 0.0 WNW 11.3 0.0
05:25 21.9 77.0 1018.8 0.0 W 11.3 0.0
05:30 21.9 77.0 1018.8 0.0 WNW 11.3 0.0
05:35 22.1 77.0 1018.9 4.8 WNW 11.3 0.0
05:40 22.1 78.0 1018.9 0.0 WSW 11.3 0.0
05:45 22.0 77.0 1018.8 9.7 W 11.3 0.0
05:50 21.9 77.0 1018.9 6.4 W 12.9 0.0
05:55 21.9 77.0 1018.9 6.4 WSW 12.9 0.0
06:00 21.7 78.0 1019.0 6.4 W 11.3 0.0
06:05 21.6 78.0 1019.0 4.8 W 8.0 0.0
06:10 21.6 78.0 1019.0 0.0 W 9.7 0.0
06:15 21.7 78.0 1019.0 9.7 W 11.3 0.0
06:20 21.6 78.0 1019.1 9.7 W 11.3 0.0
06:25 21.4 78.0 1019.1 9.7 W 11.3 0.0
06:30 21.4 79.0 1019.2 0.0 W 11.3 0.0
06:35 21.6 78.0 1019.2 0.0 W 11.3 0.0
06:40 21.7 78.0 1019.1 9.7 W 11.3 0.0
06:45 21.9 77.0 1019.2 11.3 W 12.9 0.0
06:50 21.9 77.0 1019.3 11.3 WSW 12.9 0.0
06:55 22.0 77.0 1019.4 11.3 WNW 12.9 0.0
07:00 22.0 77.0 1019.4 11.3 W 11.3 0.0
07:05 22.1 77.0 1019.4 4.8 WSW 11.3 0.0
07:10 22.2 76.0 1019.4 6.4 W 12.9 0.0
07:15 22.3 76.0 1019.3 8.0 WSW 12.9 0.0
07:20 22.4 75.0 1019.3 6.4 W 11.3 0.0
07:25 22.7 75.0 1019.3 9.7 WNW 11.3 0.0
07:30 22.8 75.0 1019.3 11.3 W 11.3 0.0
07:35 23.1 75.0 1019.3 9.7 W 12.9 0.0
07:40 23.0 76.0 1019.4 11.3 W 11.3 0.0
07:45 23.2 75.0 1019.3 9.7 W 11.3 0.0
07:50 23.7 72.0 1019.3 11.3 W 11.3 0.0
07:55 23.8 71.0 1019.3 11.3 WNW 11.3 0.0
08:00 24.0 71.0 1019.3 11.3 W 12.9 0.0
08:05 24.1 71.0 1019.3 11.3 W 12.9 0.0
08:10 24.5 69.0 1019.2 9.7 W 11.3 0.0
08:15 24.6 69.0 1019.2 9.7 W 11.3 0.0
08:20 24.8 69.0 1019.3 9.7 WNW 11.3 0.0
08:25 25.0 68.0 1019.3 9.7 W 11.3 0.0
08:30 24.9 70.0 1019.2 6.4 W 11.3 0.0
08:35 24.9 70.0 1019.2 0.0 WSW 8.0 0.0
08:40 25.1 70.0 1019.2 0.0 W 0.0 0.0
08:45 25.2 68.0 1019.3 0.0 WSW 0.0 0.0
08:50 25.6 68.0 1019.3 0.0 WSW 0.0 0.0
08:55 25.8 67.0 1019.3 0.0 WSW 0.0 0.0
09:00 26.2 66.0 1019.3 0.0 WSW 0.0 0.0
09:05 26.5 65.0 1019.3 0.0 WSW 0.0 0.0
09:10 26.7 64.0 1019.3 0.0 WSW 0.0 0.0
09:15 27.1 62.0 1019.4 0.0 SW 1.6 0.0
09:20 27.4 61.0 1019.4 0.0 W 1.6 0.0
09:25 27.7 60.0 1019.4 0.0 W 0.0 0.0
09:30 27.8 60.0 1019.3 0.0 W 0.0 0.0
09:35 28.1 58.0 1019.3 0.0 W 0.0 0.0
09:40 28.5 55.0 1019.3 0.0 W 0.0 0.0
09:45 28.9 54.0 1019.3 0.0 W 0.0 0.0
09:50 30.2 50.0 1019.2 0.0 SSW 0.0 0.0
09:55 31.4 46.0 1019.2 0.0 E 1.6 0.0
10:00 32.4 45.0 1019.1 0.0 ESE 3.2 0.0
10:05 33.3 41.0 1019.1 3.2 ESE 9.7 0.0
10:10 33.3 42.0 1019.0 0.0 E 9.7 0.0
10:15 34.1 39.0 1019.0 0.0 ESE 9.7 0.0
10:20 35.0 36.0 1018.9 1.6 E 9.7 0.0
10:25 35.3 35.0 1018.9 0.0 ESE 9.7 0.0
10:30 35.4 35.0 1018.8 0.0 E 8.0 0.0
10:35 35.6 35.0 1018.8 0.0 ENE 9.7 0.0
10:40 36.1 34.0 1018.8 4.8 ENE 9.7 0.0
10:45 36.1 33.0 1018.7 0.0 E 11.3 0.0
10:50 36.1 34.0 1018.7 3.2 ENE 11.3 0.0
10:55 36.4 33.0 1018.6 0.0 E 11.3 0.0
Màxima 36.4 79.0 1019.4 11.3 W 12.9 0.0
Mínima 20 33.0 1018.1
Total 0.0